THY4902 LTBJ-HCMM

Flight info

Callsign THY4902
Flight time N/A
Altitude 33000
Route OKESA UG80 BANRO UN128 RDS UL995 VANZA N134 KOMEZ M855 RASDA A16 CVO A727 LXR P751 PSD N720 FEREB UV790 SB R775 MANDA UR775 ALNAB R775 GABDA UR775 SOLUL DCT IBROL
Aircraft B38M/M-VGDW/C

Departure

Time N/A
Airport Adnan Menderes International Airport (LTBJ)

Arrival

Time 2026-05-09 00:37
Airport Aden Adde International Airport (HCMM)
Time Latitude Longitude Altitude Speed Heading
2026-05-08 19:34 35.04235 29.66940 33122 ft 504 kts 141°
2026-05-08 19:34 35.01670 29.69889 33126 ft 504 kts 141°
2026-05-08 19:35 34.96591 29.75765 33131 ft 505 kts 140°
2026-05-08 19:35 34.91509 29.81703 33128 ft 505 kts 141°
2026-05-08 19:36 34.86458 29.87588 33134 ft 505 kts 140°
2026-05-08 19:36 34.81383 29.93491 33133 ft 505 kts 141°
2026-05-08 19:37 34.76315 29.99422 33128 ft 506 kts 136°
2026-05-08 19:37 34.72171 30.06436 33125 ft 511 kts 128°
2026-05-08 19:38 34.68137 30.13533 33139 ft 511 kts 127°
2026-05-08 19:38 34.64776 30.19464 33132 ft 510 kts 127°
2026-05-08 19:39 34.60752 30.26557 33131 ft 510 kts 127°
2026-05-08 19:39 34.56711 30.33666 33136 ft 509 kts 127°
2026-05-08 19:40 34.52694 30.40720 33136 ft 509 kts 127°
2026-05-08 19:40 34.48650 30.47805 33137 ft 509 kts 127°
2026-05-08 19:41 34.44632 30.54832 33136 ft 509 kts 127°
2026-05-08 19:41 34.40578 30.61907 33136 ft 509 kts 127°
2026-05-08 19:42 34.36549 30.68925 33137 ft 509 kts 127°
2026-05-08 19:42 34.32490 30.75981 33132 ft 510 kts 127°
2026-05-08 19:43 34.28427 30.83003 33128 ft 509 kts 130°
2026-05-08 19:43 34.26014 30.86079 33118 ft 500 kts 146°
2026-05-08 19:43 34.23096 30.88332 33134 ft 491 kts 159°
2026-05-08 19:43 34.19940 30.89755 33113 ft 481 kts 174°
2026-05-08 19:44 34.16640 30.90308 33142 ft 475 kts 181°
2026-05-08 19:44 34.10015 30.90904 33128 ft 475 kts 183°
2026-05-08 19:45 34.03440 30.91321 33128 ft 475 kts 184°
2026-05-08 19:45 33.96823 30.91692 33134 ft 475 kts 184°
2026-05-08 19:46 33.90220 30.91945 33136 ft 475 kts 185°
2026-05-08 19:46 33.80286 30.92325 33132 ft 476 kts 184°
2026-05-08 19:47 33.73643 30.92580 33132 ft 476 kts 185°
2026-05-08 19:47 33.67023 30.92833 33136 ft 477 kts 185°
2026-05-08 19:48 33.60389 30.93087 33139 ft 476 kts 185°
2026-05-08 19:48 33.53741 30.93341 33134 ft 476 kts 185°
2026-05-08 19:49 33.47127 30.93593 33135 ft 476 kts 185°
2026-05-08 19:49 33.40493 30.93845 33134 ft 477 kts 185°
2026-05-08 19:50 33.33847 30.94098 33136 ft 476 kts 185°
2026-05-08 19:50 33.27216 30.94349 33137 ft 476 kts 185°
2026-05-08 19:51 33.20613 30.94599 33135 ft 476 kts 185°
2026-05-08 19:51 33.13982 30.94850 33141 ft 476 kts 184°
2026-05-08 19:52 33.07345 30.95379 33147 ft 480 kts 180°
2026-05-08 19:52 33.00715 30.96156 33137 ft 480 kts 181°
2026-05-08 19:53 32.94046 30.96897 33143 ft 480 kts 181°
2026-05-08 19:53 32.87409 30.97631 33139 ft 480 kts 181°
2026-05-08 19:54 32.80724 30.98369 33139 ft 480 kts 180°
2026-05-08 19:54 32.74045 30.99106 33147 ft 481 kts 180°
2026-05-08 19:55 32.67380 30.99839 33134 ft 482 kts 180°
2026-05-08 19:55 32.60727 31.00571 33139 ft 482 kts 180°
2026-05-08 19:56 32.54047 31.01304 33134 ft 482 kts 180°
2026-05-08 19:56 32.47344 31.02039 33138 ft 482 kts 180°
2026-05-08 19:57 32.40670 31.02769 33137 ft 483 kts 180°
2026-05-08 19:57 32.33954 31.03502 33139 ft 483 kts 180°
2026-05-08 19:58 32.27250 31.04234 33134 ft 483 kts 180°
2026-05-08 19:58 32.20571 31.04961 33134 ft 483 kts 180°
2026-05-08 19:59 32.13844 31.05693 33134 ft 484 kts 180°
2026-05-08 19:59 32.07130 31.06423 33137 ft 484 kts 180°
2026-05-08 20:00 32.00457 31.07144 33131 ft 483 kts 180°
2026-05-08 20:00 31.93754 31.07867 33133 ft 483 kts 180°
2026-05-08 20:01 31.87021 31.08592 33133 ft 483 kts 180°
2026-05-08 20:01 31.80352 31.09308 33129 ft 483 kts 180°
2026-05-08 20:02 31.73645 31.10029 33132 ft 483 kts 180°
2026-05-08 20:02 31.66919 31.10750 33127 ft 483 kts 180°
2026-05-08 20:03 31.60255 31.11463 33124 ft 482 kts 180°
2026-05-08 20:03 31.53544 31.12194 33124 ft 484 kts 177°
2026-05-08 20:04 31.46877 31.13469 33129 ft 486 kts 175°
2026-05-08 20:04 31.40223 31.14699 33122 ft 485 kts 176°
2026-05-08 20:05 31.33550 31.15917 33129 ft 485 kts 176°
2026-05-08 20:05 31.26866 31.17134 33127 ft 485 kts 175°
2026-05-08 20:06 31.20225 31.18369 33133 ft 484 kts 175°
2026-05-08 20:06 31.13596 31.19606 33129 ft 484 kts 175°
2026-05-08 20:07 31.06924 31.20848 33125 ft 483 kts 175°
2026-05-08 20:07 31.00292 31.22081 33122 ft 483 kts 175°
2026-05-08 20:08 30.93679 31.23309 33116 ft 483 kts 175°
2026-05-08 20:08 30.87039 31.24540 33113 ft 482 kts 175°
2026-05-08 20:09 30.80432 31.25764 33119 ft 481 kts 175°
2026-05-08 20:09 30.74892 31.26788 33110 ft 481 kts 175°
2026-05-08 20:10 30.68276 31.28010 33111 ft 481 kts 175°
2026-05-08 20:10 30.61705 31.29222 33112 ft 481 kts 175°
2026-05-08 20:11 30.55073 31.30444 33111 ft 481 kts 175°
2026-05-08 20:11 30.48493 31.31654 33106 ft 481 kts 175°
2026-05-08 20:12 30.41859 31.32873 33106 ft 481 kts 175°
2026-05-08 20:12 30.35259 31.34084 33102 ft 481 kts 175°
2026-05-08 20:13 30.28643 31.35295 33102 ft 481 kts 175°
2026-05-08 20:13 30.22039 31.36503 33097 ft 480 kts 175°
2026-05-08 20:14 30.15428 31.37711 33099 ft 480 kts 175°
2026-05-08 20:14 30.08854 31.39002 33088 ft 483 kts 169°
2026-05-08 20:15 30.02344 31.41136 33101 ft 484 kts 168°
2026-05-08 20:15 29.95858 31.43286 33098 ft 484 kts 168°
2026-05-08 20:16 29.89407 31.45425 33096 ft 484 kts 167°
2026-05-08 20:16 29.82916 31.47574 33094 ft 484 kts 167°
2026-05-08 20:17 29.76454 31.49715 33099 ft 483 kts 167°
2026-05-08 20:17 29.69988 31.51844 33089 ft 483 kts 167°
2026-05-08 20:18 29.63503 31.53969 33089 ft 483 kts 167°
2026-05-08 20:18 29.57025 31.56090 33083 ft 483 kts 167°
2026-05-08 20:19 29.50605 31.58189 33082 ft 483 kts 167°
2026-05-08 20:19 29.44107 31.60310 33084 ft 483 kts 167°
2026-05-08 20:20 29.37651 31.62415 33078 ft 483 kts 167°
2026-05-08 20:20 29.31174 31.64524 33072 ft 483 kts 167°
2026-05-08 20:21 29.24700 31.66629 33071 ft 483 kts 167°
2026-05-08 20:21 29.18238 31.68728 33069 ft 483 kts 167°
2026-05-08 20:22 29.11786 31.70821 33063 ft 483 kts 167°
2026-05-08 20:22 29.05301 31.72922 33067 ft 483 kts 167°
2026-05-08 20:23 28.98815 31.75018 33057 ft 483 kts 168°
2026-05-08 20:23 28.92351 31.77074 33053 ft 483 kts 167°
2026-05-08 20:24 28.85890 31.79130 33052 ft 483 kts 167°
2026-05-08 20:24 28.79424 31.81184 33054 ft 483 kts 167°
2026-05-08 20:25 28.72935 31.83244 33052 ft 483 kts 167°
2026-05-08 20:25 28.66472 31.85292 33053 ft 483 kts 167°
2026-05-08 20:26 28.60003 31.87340 33052 ft 483 kts 167°
2026-05-08 20:26 28.53529 31.89386 33054 ft 483 kts 167°
2026-05-08 20:27 28.47056 31.91430 33049 ft 483 kts 167°
2026-05-08 20:27 28.40583 31.93471 33052 ft 483 kts 167°
2026-05-08 20:28 28.34092 31.95515 33048 ft 482 kts 167°
2026-05-08 20:28 28.27622 31.97553 33041 ft 482 kts 165°
2026-05-08 20:29 28.21154 31.99616 33037 ft 482 kts 166°
2026-05-08 20:29 28.14707 32.01630 33048 ft 482 kts 165°
2026-05-08 20:30 28.08254 32.03641 33068 ft 482 kts 166°
2026-05-08 20:30 28.01789 32.05677 33040 ft 482 kts 165°
2026-05-08 20:31 27.95332 32.07749 33072 ft 482 kts 166°
2026-05-08 20:31 27.88862 32.09810 33035 ft 481 kts 166°
2026-05-08 20:32 27.82443 32.11861 33027 ft 482 kts 166°
2026-05-08 20:32 27.75955 32.13931 33034 ft 482 kts 166°
2026-05-08 20:33 27.69488 32.15989 33005 ft 481 kts 166°
2026-05-08 20:33 27.63062 32.18032 33001 ft 482 kts 166°
2026-05-08 20:34 27.56623 32.20077 33001 ft 482 kts 166°
2026-05-08 20:35 27.46930 32.23152 32986 ft 482 kts 166°
2026-05-08 20:35 27.40449 32.25205 32987 ft 481 kts 166°
2026-05-08 20:36 27.33999 32.27245 32973 ft 481 kts 166°
2026-05-08 20:36 27.27579 32.29276 32971 ft 481 kts 166°
2026-05-08 20:37 27.21088 32.31326 32976 ft 481 kts 166°
2026-05-08 20:37 27.14663 32.33354 32956 ft 481 kts 166°
2026-05-08 20:38 27.08204 32.35389 32959 ft 481 kts 166°
2026-05-08 20:38 27.01778 32.37412 32951 ft 481 kts 166°
2026-05-08 20:39 26.95862 32.39272 32951 ft 481 kts 166°
2026-05-08 20:39 26.89434 32.41292 32944 ft 481 kts 166°
2026-05-08 20:40 26.83001 32.43311 32939 ft 481 kts 166°
2026-05-08 20:40 26.76557 32.45329 32938 ft 480 kts 166°
2026-05-08 20:41 26.70129 32.47341 32931 ft 480 kts 166°
2026-05-08 20:41 26.63680 32.49356 32927 ft 480 kts 166°
2026-05-08 20:42 26.57230 32.51371 32923 ft 480 kts 166°
2026-05-08 20:42 26.50781 32.53382 32919 ft 480 kts 166°
2026-05-08 20:43 26.44369 32.55379 32907 ft 480 kts 166°
2026-05-08 20:43 26.37909 32.57390 32908 ft 480 kts 166°
2026-05-08 20:44 26.31496 32.59383 32909 ft 480 kts 166°
2026-05-08 20:44 26.25089 32.61372 32912 ft 480 kts 166°
2026-05-08 20:45 26.18645 32.63370 32911 ft 480 kts 166°
2026-05-08 20:45 26.13267 32.65036 32904 ft 479 kts 166°
2026-05-08 20:46 26.06848 32.67022 32905 ft 479 kts 166°
2026-05-08 20:46 26.00426 32.69007 32903 ft 479 kts 166°
2026-05-08 20:47 25.94006 32.70989 32905 ft 479 kts 166°
2026-05-08 20:47 25.87608 32.72962 32910 ft 479 kts 166°
2026-05-08 20:48 25.81186 32.74941 32908 ft 478 kts 166°
2026-05-08 20:48 25.74860 32.77157 32897 ft 479 kts 153°
2026-05-08 20:49 25.69201 32.81141 32906 ft 482 kts 148°
2026-05-08 20:49 25.63607 32.85222 32908 ft 482 kts 148°
2026-05-08 20:50 25.58040 32.89316 32912 ft 482 kts 148°
2026-05-08 20:50 25.52460 32.93418 32911 ft 481 kts 148°
2026-05-08 20:51 25.46862 32.97528 32909 ft 481 kts 148°
2026-05-08 20:51 25.41300 33.01608 32913 ft 481 kts 148°
2026-05-08 20:52 25.35707 33.05705 32913 ft 481 kts 148°
2026-05-08 20:52 25.30147 33.09774 32906 ft 481 kts 148°
2026-05-08 20:53 25.24538 33.13874 32911 ft 482 kts 148°
2026-05-08 20:53 25.18976 33.17936 32906 ft 482 kts 148°
2026-05-08 20:54 25.13381 33.22018 32916 ft 482 kts 148°
2026-05-08 20:54 25.07746 33.26124 32911 ft 482 kts 148°
2026-05-08 20:55 25.02199 33.30162 32907 ft 483 kts 148°
2026-05-08 20:55 24.96576 33.34250 32906 ft 483 kts 148°
2026-05-08 20:56 24.90955 33.38333 32913 ft 483 kts 148°
2026-05-08 20:56 24.85370 33.42420 32915 ft 483 kts 146°
2026-05-08 20:57 24.79712 33.46496 32906 ft 483 kts 148°
2026-05-08 20:57 24.74116 33.50542 32923 ft 483 kts 147°
2026-05-08 20:58 24.68480 33.54622 32917 ft 483 kts 147°
2026-05-08 20:58 24.62878 33.58672 32905 ft 484 kts 147°
2026-05-08 20:59 24.57257 33.62722 32923 ft 484 kts 148°
2026-05-08 20:59 24.51629 33.66777 32922 ft 484 kts 147°
2026-05-08 21:00 24.45998 33.70834 32927 ft 485 kts 147°
2026-05-08 21:00 24.40338 33.74909 32941 ft 484 kts 147°
2026-05-08 21:01 24.34704 33.78949 32924 ft 485 kts 147°
2026-05-08 21:01 24.29078 33.82988 32920 ft 485 kts 147°
2026-05-08 21:02 24.23413 33.87048 32926 ft 486 kts 147°
2026-05-08 21:02 24.17753 33.91099 32928 ft 486 kts 148°
2026-05-08 21:03 24.12094 33.95147 32928 ft 486 kts 148°
2026-05-08 21:03 24.06448 33.99182 32944 ft 486 kts 148°
2026-05-08 21:04 24.00789 34.03222 32929 ft 487 kts 147°
2026-05-08 21:04 23.95128 34.07256 32935 ft 487 kts 147°
2026-05-08 21:05 23.89431 34.11316 32933 ft 486 kts 147°
2026-05-08 21:05 23.83780 34.15341 32925 ft 486 kts 147°
2026-05-08 21:06 23.78158 34.19368 32926 ft 486 kts 147°
2026-05-08 21:06 23.72482 34.23432 32923 ft 485 kts 146°
2026-05-08 21:07 23.66854 34.27452 32931 ft 485 kts 147°
2026-05-08 21:07 23.61210 34.31486 32934 ft 484 kts 147°
2026-05-08 21:08 23.55621 34.35486 32956 ft 484 kts 147°
2026-05-08 21:08 23.49972 34.39506 32934 ft 484 kts 147°
2026-05-08 21:09 23.44343 34.43517 32939 ft 484 kts 147°
2026-05-08 21:09 23.38679 34.47548 32947 ft 484 kts 147°
2026-05-08 21:10 23.33060 34.51544 32947 ft 484 kts 147°
2026-05-08 21:10 23.27425 34.55547 32950 ft 484 kts 147°
2026-05-08 21:11 23.21783 34.59551 32953 ft 484 kts 147°
2026-05-08 21:11 23.16144 34.63548 32956 ft 483 kts 147°
2026-05-08 21:12 23.10517 34.67534 32959 ft 483 kts 147°
2026-05-08 21:12 23.04890 34.71515 32966 ft 483 kts 147°
2026-05-08 21:13 22.99254 34.75498 32964 ft 482 kts 147°
2026-05-08 21:13 22.93642 34.79460 32965 ft 482 kts 147°
2026-05-08 21:14 22.88020 34.83426 32963 ft 482 kts 147°
2026-05-08 21:14 22.82394 34.87390 32965 ft 482 kts 147°
2026-05-08 21:15 22.76774 34.91345 32962 ft 481 kts 147°
2026-05-08 21:15 22.71161 34.95293 32970 ft 481 kts 147°
2026-05-08 21:16 22.65557 34.99229 32977 ft 481 kts 147°
2026-05-08 21:16 22.59951 35.03164 32970 ft 481 kts 147°
2026-05-08 21:17 22.54366 35.07080 32973 ft 480 kts 147°
2026-05-08 21:17 22.48754 35.11011 32976 ft 480 kts 147°
2026-05-08 21:18 22.43151 35.14932 32973 ft 480 kts 147°
2026-05-08 21:18 22.37554 35.18844 32980 ft 480 kts 147°
2026-05-08 21:19 22.31929 35.22773 32975 ft 479 kts 147°
2026-05-08 21:19 22.26328 35.26680 32981 ft 479 kts 147°
2026-05-08 21:20 22.20736 35.30579 32983 ft 478 kts 147°
2026-05-08 21:20 22.15138 35.34477 32981 ft 478 kts 147°
2026-05-08 21:21 22.09563 35.38356 32979 ft 478 kts 147°
2026-05-08 21:21 22.03960 35.42252 32983 ft 478 kts 147°
2026-05-08 21:22 21.98374 35.46157 32976 ft 477 kts 146°
2026-05-08 21:22 21.92845 35.50049 32976 ft 477 kts 147°
2026-05-08 21:23 21.87273 35.53966 32972 ft 476 kts 147°
2026-05-08 21:23 21.81730 35.57859 32964 ft 476 kts 147°
2026-05-08 21:24 21.76206 35.61735 32962 ft 475 kts 147°
2026-05-08 21:24 21.70652 35.65627 32958 ft 475 kts 147°
2026-05-08 21:25 21.65109 35.69509 32952 ft 475 kts 147°
2026-05-08 21:25 21.59608 35.73358 32952 ft 474 kts 147°
2026-05-08 21:26 21.54061 35.77236 32950 ft 473 kts 147°
2026-05-08 21:26 21.48546 35.81087 32946 ft 473 kts 147°
2026-05-08 21:27 21.43032 35.84935 32948 ft 472 kts 147°
2026-05-08 21:27 21.37534 35.88767 32947 ft 472 kts 148°
2026-05-08 21:28 21.32033 35.92598 32938 ft 471 kts 148°
2026-05-08 21:28 21.26544 35.96417 32944 ft 471 kts 148°
2026-05-08 21:29 21.21032 36.00249 32935 ft 471 kts 148°
2026-05-08 21:29 21.15538 36.04065 32939 ft 471 kts 148°
2026-05-08 21:30 21.10068 36.07861 32935 ft 470 kts 148°
2026-05-08 21:30 21.04563 36.11678 32930 ft 469 kts 148°
2026-05-08 21:31 20.99096 36.15465 32934 ft 469 kts 148°
2026-05-08 21:31 20.93610 36.19261 32932 ft 468 kts 149°
2026-05-08 21:32 20.88143 36.23042 32938 ft 468 kts 149°
2026-05-08 21:32 20.82690 36.26811 32932 ft 467 kts 148°
2026-05-08 21:33 20.78158 36.29941 32940 ft 467 kts 149°
2026-05-08 21:33 20.72714 36.33711 32921 ft 466 kts 148°
2026-05-08 21:34 20.67239 36.37474 32928 ft 466 kts 148°
2026-05-08 21:34 20.61824 36.41198 32938 ft 465 kts 148°
2026-05-08 21:35 20.56404 36.44927 32933 ft 464 kts 149°
2026-05-08 21:35 20.50963 36.48668 32935 ft 464 kts 149°
2026-05-08 21:36 20.45528 36.52402 32937 ft 463 kts 149°
2026-05-08 21:36 20.40120 36.56112 32938 ft 462 kts 149°
2026-05-08 21:37 20.34734 36.59806 32933 ft 462 kts 149°
2026-05-08 21:37 20.29328 36.63512 32939 ft 461 kts 149°
2026-05-08 21:38 20.23914 36.67215 32936 ft 461 kts 150°
2026-05-08 21:38 20.18511 36.70904 32937 ft 461 kts 150°
2026-05-08 21:39 20.13144 36.74570 32932 ft 461 kts 151°
2026-05-08 21:39 20.07758 36.78245 32933 ft 460 kts 151°
2026-05-08 21:40 20.02346 36.81938 32930 ft 460 kts 151°
2026-05-08 21:40 19.96952 36.85616 32930 ft 461 kts 151°
2026-05-08 21:41 19.88853 36.91132 32928 ft 461 kts 152°
2026-05-08 21:41 19.83455 36.94804 32914 ft 461 kts 152°
2026-05-08 21:42 19.78055 36.98472 32916 ft 461 kts 152°
2026-05-08 21:42 19.72665 37.02130 32915 ft 461 kts 152°
2026-05-08 21:43 19.67288 37.05779 32911 ft 461 kts 152°
2026-05-08 21:43 19.61886 37.09442 32907 ft 461 kts 152°
2026-05-08 21:44 19.56470 37.13111 32908 ft 461 kts 152°
2026-05-08 21:44 19.51077 37.16761 32902 ft 461 kts 153°
2026-05-08 21:45 19.45648 37.20434 32901 ft 461 kts 153°
2026-05-08 21:45 19.40271 37.24108 32894 ft 463 kts 148°
2026-05-08 21:46 19.35270 37.28487 32898 ft 466 kts 145°
2026-05-08 21:46 19.30308 37.32889 32890 ft 466 kts 145°
2026-05-08 21:47 19.25302 37.37333 32892 ft 466 kts 145°
2026-05-08 21:47 19.20350 37.41725 32888 ft 467 kts 145°
2026-05-08 21:48 19.15384 37.46126 32889 ft 467 kts 145°
2026-05-08 21:48 19.10389 37.50549 32885 ft 467 kts 145°
2026-05-08 21:49 19.05417 37.54949 32881 ft 467 kts 146°
2026-05-08 21:49 19.00440 37.59349 32883 ft 466 kts 146°
2026-05-08 21:50 18.95483 37.63728 32881 ft 466 kts 146°
2026-05-08 21:50 18.90502 37.68124 32884 ft 465 kts 146°
2026-05-08 21:51 18.85542 37.72499 32876 ft 465 kts 146°
2026-05-08 21:51 18.80583 37.76869 32877 ft 464 kts 146°
2026-05-08 21:52 18.75607 37.81251 32876 ft 464 kts 146°
2026-05-08 21:52 18.70674 37.85592 32876 ft 463 kts 146°
2026-05-08 21:53 18.65730 37.89939 32877 ft 463 kts 146°
2026-05-08 21:53 18.60817 37.94255 32876 ft 463 kts 146°
2026-05-08 21:54 18.55857 37.98628 32879 ft 463 kts 146°
2026-05-08 21:54 18.50933 38.02980 32875 ft 463 kts 146°
2026-05-08 21:55 18.46004 38.07332 32878 ft 464 kts 146°
2026-05-08 21:56 18.38597 38.13867 32874 ft 464 kts 147°
2026-05-08 21:56 18.33641 38.18236 32879 ft 464 kts 147°
2026-05-08 21:57 18.28701 38.22587 32877 ft 464 kts 147°
2026-05-08 21:57 18.23763 38.26932 32882 ft 464 kts 147°
2026-05-08 21:58 18.18829 38.31272 32881 ft 464 kts 147°
2026-05-08 21:58 18.13874 38.35624 32881 ft 463 kts 147°
2026-05-08 21:59 18.08933 38.39962 32878 ft 463 kts 147°
2026-05-08 21:59 18.03962 38.44325 32873 ft 463 kts 146°
2026-05-08 22:00 17.99019 38.48658 32878 ft 463 kts 146°
2026-05-08 22:00 17.94074 38.52990 32871 ft 463 kts 146°
2026-05-08 22:01 17.89132 38.57316 32873 ft 463 kts 146°
2026-05-08 22:01 17.84185 38.61643 32873 ft 463 kts 146°
2026-05-08 22:02 17.79249 38.65957 32871 ft 462 kts 146°
2026-05-08 22:02 17.74325 38.70259 32879 ft 461 kts 146°
2026-05-08 22:03 17.69378 38.74576 32859 ft 461 kts 146°
2026-05-08 22:03 17.64464 38.78862 32853 ft 460 kts 146°
2026-05-08 22:04 17.59552 38.83143 32856 ft 459 kts 146°
2026-05-08 22:04 17.54662 38.87401 32865 ft 458 kts 146°
2026-05-08 22:05 17.49762 38.91666 32862 ft 458 kts 145°
2026-05-08 22:05 17.44859 38.95930 32861 ft 458 kts 145°
2026-05-08 22:06 17.39947 39.00179 32853 ft 458 kts 145°
2026-05-08 22:06 17.35031 39.04424 32854 ft 458 kts 145°
2026-05-08 22:07 17.30095 39.08684 32854 ft 458 kts 144°
2026-05-08 22:07 17.25201 39.12906 32851 ft 458 kts 145°
2026-05-08 22:08 17.20277 39.17149 32850 ft 458 kts 145°
2026-05-08 22:08 17.15337 39.21403 32851 ft 458 kts 144°
2026-05-08 22:09 17.10430 39.25625 32852 ft 458 kts 144°
2026-05-08 22:09 17.05496 39.29869 32851 ft 458 kts 144°
2026-05-08 22:10 17.00576 39.34098 32852 ft 458 kts 144°
2026-05-08 22:10 16.95653 39.38325 32854 ft 457 kts 144°
2026-05-08 22:11 16.90747 39.42536 32851 ft 457 kts 144°
2026-05-08 22:11 16.85855 39.46730 32849 ft 456 kts 144°
2026-05-08 22:12 16.80950 39.50935 32849 ft 457 kts 144°
2026-05-08 22:12 16.76019 39.55156 32850 ft 457 kts 144°
2026-05-08 22:13 16.71107 39.59363 32849 ft 458 kts 144°
2026-05-08 22:13 16.66171 39.63582 32852 ft 458 kts 144°
2026-05-08 22:14 16.61242 39.67796 32850 ft 458 kts 144°
2026-05-08 22:14 16.56328 39.71992 32849 ft 458 kts 144°
2026-05-08 22:15 16.51399 39.76196 32848 ft 458 kts 144°
2026-05-08 22:15 16.46447 39.80420 32847 ft 457 kts 144°
2026-05-08 22:16 16.41529 39.84610 32848 ft 457 kts 144°
2026-05-08 22:16 16.36611 39.88799 32848 ft 457 kts 144°
2026-05-08 22:17 16.31695 39.92983 32848 ft 456 kts 144°
2026-05-08 22:17 16.26766 39.97175 32846 ft 456 kts 144°
2026-05-08 22:18 16.21863 40.01346 32848 ft 457 kts 144°
2026-05-08 22:18 16.17727 40.04858 32841 ft 457 kts 143°
2026-05-08 22:19 16.12826 40.09019 32843 ft 458 kts 144°
2026-05-08 22:19 16.07857 40.13235 32844 ft 459 kts 144°
2026-05-08 22:20 16.02906 40.17431 32839 ft 459 kts 144°
2026-05-08 22:20 15.97933 40.21644 32839 ft 460 kts 144°
2026-05-08 22:21 15.93001 40.25820 32841 ft 460 kts 144°
2026-05-08 22:21 15.88013 40.30040 32844 ft 460 kts 144°
2026-05-08 22:22 15.83050 40.34239 32841 ft 460 kts 144°
2026-05-08 22:22 15.78084 40.38433 32839 ft 460 kts 144°
2026-05-08 22:23 15.73142 40.42607 32838 ft 460 kts 144°
2026-05-08 22:23 15.68183 40.46793 32840 ft 460 kts 143°
2026-05-08 22:24 15.63199 40.50998 32840 ft 460 kts 144°
2026-05-08 22:24 15.58241 40.55178 32835 ft 460 kts 144°
2026-05-08 22:25 15.53268 40.59366 32840 ft 461 kts 144°
2026-05-08 22:25 15.48294 40.63554 32833 ft 461 kts 144°
2026-05-08 22:26 15.43283 40.67767 32839 ft 461 kts 144°
2026-05-08 22:26 15.38317 40.71941 32838 ft 461 kts 144°
2026-05-08 22:27 15.33325 40.76135 32835 ft 461 kts 144°
2026-05-08 22:27 15.28344 40.80317 32835 ft 461 kts 144°
2026-05-08 22:28 15.23358 40.84500 32832 ft 461 kts 144°
2026-05-08 22:28 15.18350 40.88702 32832 ft 461 kts 144°
2026-05-08 22:29 15.13353 40.92890 32845 ft 460 kts 144°
2026-05-08 22:29 15.08435 40.97010 32832 ft 458 kts 144°
2026-05-08 22:30 15.03463 41.01171 32831 ft 458 kts 144°
2026-05-08 22:30 14.98501 41.05313 32833 ft 458 kts 144°
2026-05-08 22:31 14.93527 41.09465 32828 ft 458 kts 144°
2026-05-08 22:31 14.88554 41.13614 32838 ft 458 kts 144°
2026-05-08 22:32 14.83584 41.17759 32837 ft 459 kts 144°
2026-05-08 22:32 14.78606 41.21908 32834 ft 459 kts 144°
2026-05-08 22:33 14.73639 41.26043 32837 ft 459 kts 144°
2026-05-08 22:33 14.68687 41.30164 32835 ft 459 kts 144°
2026-05-08 22:34 14.63711 41.34303 32839 ft 459 kts 144°
2026-05-08 22:34 14.58715 41.38456 32837 ft 459 kts 144°
2026-05-08 22:35 14.53739 41.42590 32835 ft 459 kts 144°
2026-05-08 22:35 14.48785 41.46703 32833 ft 459 kts 144°
2026-05-08 22:36 14.43814 41.50828 32831 ft 459 kts 144°
2026-05-08 22:36 14.38840 41.54954 32834 ft 458 kts 144°
2026-05-08 22:37 14.33862 41.59080 32835 ft 458 kts 144°
2026-05-08 22:37 14.28902 41.63189 32836 ft 458 kts 144°
2026-05-08 22:38 14.23906 41.67324 32832 ft 458 kts 144°
2026-05-08 22:38 14.18949 41.71425 32840 ft 458 kts 144°
2026-05-08 22:39 14.13974 41.75540 32834 ft 458 kts 144°
2026-05-08 22:39 14.09029 41.79626 32831 ft 458 kts 144°
2026-05-08 22:40 14.04028 41.83757 32836 ft 457 kts 144°
2026-05-08 22:40 13.99076 41.87844 32838 ft 457 kts 144°
2026-05-08 22:41 13.94126 41.91931 32837 ft 457 kts 144°
2026-05-08 22:41 13.89140 41.96042 32837 ft 457 kts 144°
2026-05-08 22:42 13.84187 42.00121 32839 ft 457 kts 144°
2026-05-08 22:42 13.79198 42.04230 32840 ft 457 kts 144°
2026-05-08 22:43 13.74242 42.08311 32839 ft 457 kts 144°
2026-05-08 22:43 13.69259 42.12410 32840 ft 458 kts 144°
2026-05-08 22:44 13.64279 42.16490 32836 ft 458 kts 144°
2026-05-08 22:44 13.59286 42.20561 32839 ft 458 kts 144°
2026-05-08 22:45 13.54294 42.24628 32838 ft 458 kts 144°
2026-05-08 22:45 13.49303 42.28694 32835 ft 458 kts 144°
2026-05-08 22:46 13.44332 42.32741 32835 ft 458 kts 144°
2026-05-08 22:46 13.39320 42.36819 32836 ft 458 kts 144°
2026-05-08 22:47 13.34339 42.40870 32834 ft 458 kts 144°
2026-05-08 22:47 13.29349 42.44926 32836 ft 458 kts 144°
2026-05-08 22:48 13.24340 42.48994 32838 ft 458 kts 144°
2026-05-08 22:48 13.19344 42.53051 32841 ft 457 kts 144°
2026-05-08 22:49 13.14378 42.57081 32834 ft 458 kts 144°
2026-05-08 22:49 13.07675 42.62454 32832 ft 456 kts 150°
2026-05-08 22:50 13.04832 42.63840 32837 ft 450 kts 163°
2026-05-08 22:50 13.01852 42.64852 32834 ft 453 kts 162°
2026-05-08 22:50 12.94891 42.67197 32836 ft 453 kts 163°
2026-05-08 22:51 12.89875 42.68844 32840 ft 453 kts 163°
2026-05-08 22:51 12.83855 42.70816 32837 ft 453 kts 163°
2026-05-08 22:52 12.77851 42.72784 32846 ft 454 kts 163°
2026-05-08 22:52 12.71820 42.74759 32849 ft 454 kts 163°
2026-05-08 22:53 12.65819 42.76722 32848 ft 454 kts 163°
2026-05-08 22:53 12.59761 42.78693 32851 ft 454 kts 165°
2026-05-08 22:54 12.53704 42.80453 32853 ft 455 kts 165°
2026-05-08 22:54 12.47632 42.82232 32854 ft 455 kts 165°
2026-05-08 22:55 12.41506 42.84029 32865 ft 455 kts 165°
2026-05-08 22:55 12.35435 42.85809 32869 ft 455 kts 165°
2026-05-08 22:56 12.29329 42.87598 32871 ft 456 kts 165°
2026-05-08 22:56 12.23227 42.89385 32875 ft 456 kts 165°
2026-05-08 22:57 12.17081 42.91185 32876 ft 456 kts 165°
2026-05-08 22:57 12.10998 42.92965 32874 ft 456 kts 165°
2026-05-08 22:58 12.04868 42.94758 32875 ft 457 kts 165°
2026-05-08 22:58 11.98765 42.96542 32873 ft 457 kts 165°
2026-05-08 22:59 11.92662 42.98325 32863 ft 457 kts 165°
2026-05-08 22:59 11.86527 43.00117 32861 ft 457 kts 165°
2026-05-08 23:00 11.80415 43.01902 32861 ft 457 kts 165°
2026-05-08 23:00 11.74302 43.03685 32853 ft 456 kts 165°
2026-05-08 23:01 11.68224 43.05458 32852 ft 456 kts 165°
2026-05-08 23:01 11.62089 43.07247 32848 ft 456 kts 165°
2026-05-08 23:02 11.55999 43.09023 32847 ft 456 kts 164°
2026-05-08 23:02 11.50159 43.11641 32844 ft 457 kts 155°
2026-05-08 23:03 11.44413 43.14415 32844 ft 457 kts 155°
2026-05-08 23:03 11.38678 43.17193 32842 ft 457 kts 155°
2026-05-08 23:04 11.32983 43.20095 32845 ft 457 kts 154°
2026-05-08 23:04 11.27312 43.23009 32846 ft 457 kts 154°
2026-05-08 23:05 11.21633 43.25922 32843 ft 457 kts 154°
2026-05-08 23:05 11.15939 43.28840 32843 ft 457 kts 154°
2026-05-08 23:06 11.10296 43.31732 32844 ft 457 kts 154°
2026-05-08 23:06 11.04619 43.34640 32840 ft 457 kts 154°
2026-05-08 23:07 10.98942 43.37546 32840 ft 456 kts 154°
2026-05-08 23:07 10.93245 43.40461 32841 ft 456 kts 154°
2026-05-08 23:08 10.87578 43.43359 32839 ft 456 kts 154°
2026-05-08 23:08 10.81885 43.46270 32841 ft 456 kts 154°
2026-05-08 23:09 10.76228 43.49162 32844 ft 456 kts 154°
2026-05-08 23:09 10.70564 43.52055 32846 ft 456 kts 154°
2026-05-08 23:10 10.64858 43.54968 32847 ft 456 kts 154°
2026-05-08 23:10 10.59173 43.57871 32849 ft 456 kts 154°
2026-05-08 23:11 10.53457 43.60711 32857 ft 456 kts 155°
2026-05-08 23:11 10.47702 43.63465 32858 ft 456 kts 155°
2026-05-08 23:12 10.41989 43.66208 32866 ft 456 kts 155°
2026-05-08 23:12 10.36251 43.68963 32866 ft 456 kts 155°
2026-05-08 23:13 10.30485 43.71730 32871 ft 456 kts 155°
2026-05-08 23:13 10.24735 43.74488 32883 ft 456 kts 155°
2026-05-08 23:14 10.18990 43.77243 32887 ft 456 kts 155°
2026-05-08 23:14 10.13229 43.80005 32899 ft 456 kts 155°
2026-05-08 23:15 10.07498 43.82751 32908 ft 456 kts 155°
2026-05-08 23:15 10.01752 43.85502 32917 ft 456 kts 155°
2026-05-08 23:16 9.96012 43.88250 32922 ft 456 kts 155°
2026-05-08 23:16 9.90284 43.90992 32927 ft 456 kts 155°
2026-05-08 23:17 9.84528 43.93746 32935 ft 456 kts 155°
2026-05-08 23:17 9.78766 43.96501 32940 ft 456 kts 155°
2026-05-08 23:18 9.73045 43.99236 32944 ft 455 kts 155°
2026-05-08 23:18 9.67334 44.01965 32945 ft 455 kts 155°
2026-05-08 23:19 9.61589 44.04709 32951 ft 455 kts 155°
2026-05-08 23:19 9.55871 44.07439 32953 ft 455 kts 155°
2026-05-08 23:20 9.50960 44.09412 32945 ft 453 kts 169°
2026-05-08 23:20 9.44798 44.10703 32955 ft 454 kts 168°
2026-05-08 23:21 9.38587 44.12010 32955 ft 454 kts 168°
2026-05-08 23:21 9.32401 44.13298 32953 ft 454 kts 168°
2026-05-08 23:22 9.26191 44.14590 32954 ft 454 kts 168°
2026-05-08 23:22 9.20012 44.15875 32957 ft 454 kts 168°
2026-05-08 23:23 9.13810 44.17164 32954 ft 454 kts 168°
2026-05-08 23:23 9.07618 44.18450 32953 ft 454 kts 168°
2026-05-08 23:24 9.01430 44.19736 32951 ft 454 kts 168°
2026-05-08 23:24 8.95244 44.21020 32952 ft 454 kts 168°
2026-05-08 23:25 8.89088 44.22428 32952 ft 454 kts 166°
2026-05-08 23:25 8.82946 44.23908 32952 ft 454 kts 167°
2026-05-08 23:26 8.76816 44.25377 32949 ft 454 kts 167°
2026-05-08 23:26 8.70641 44.26855 32947 ft 453 kts 167°
2026-05-08 23:27 8.64515 44.28321 32944 ft 453 kts 167°
2026-05-08 23:27 8.58386 44.29788 32943 ft 454 kts 167°
2026-05-08 23:28 8.52212 44.31265 32939 ft 453 kts 167°
2026-05-08 23:28 8.46099 44.32726 32938 ft 453 kts 167°
2026-05-08 23:29 8.39948 44.34196 32939 ft 453 kts 167°
2026-05-08 23:29 8.33820 44.35661 32936 ft 453 kts 167°
2026-05-08 23:30 8.27673 44.37129 32935 ft 453 kts 167°
2026-05-08 23:30 8.21537 44.38594 32932 ft 453 kts 167°
2026-05-08 23:31 8.15383 44.40063 32927 ft 453 kts 167°
2026-05-08 23:31 8.09246 44.41527 32925 ft 453 kts 167°
2026-05-08 23:32 8.03100 44.42994 32918 ft 454 kts 167°
2026-05-08 23:32 7.96915 44.44469 32916 ft 454 kts 167°
2026-05-08 23:33 7.90775 44.45933 32918 ft 454 kts 167°
2026-05-08 23:33 7.84653 44.47392 32913 ft 454 kts 167°
2026-05-08 23:34 7.78493 44.48860 32916 ft 454 kts 167°
2026-05-08 23:34 7.72342 44.50325 32912 ft 454 kts 167°
2026-05-08 23:35 7.66193 44.51789 32912 ft 454 kts 167°
2026-05-08 23:35 7.60086 44.53243 32911 ft 454 kts 167°
2026-05-08 23:36 7.53903 44.54714 32912 ft 453 kts 167°
2026-05-08 23:36 7.47795 44.56167 32911 ft 453 kts 167°
2026-05-08 23:37 7.41653 44.57628 32912 ft 453 kts 167°
2026-05-08 23:37 7.35498 44.59092 32910 ft 453 kts 167°
2026-05-08 23:38 7.29349 44.60554 32915 ft 453 kts 167°
2026-05-08 23:38 7.23239 44.62006 32913 ft 453 kts 167°
2026-05-08 23:39 7.17084 44.63468 32917 ft 453 kts 167°
2026-05-08 23:39 7.10941 44.64927 32919 ft 453 kts 167°
2026-05-08 23:40 7.04819 44.66381 32915 ft 453 kts 167°
2026-05-08 23:40 6.98680 44.67838 32915 ft 453 kts 167°
2026-05-08 23:41 6.92560 44.69290 32913 ft 453 kts 167°
2026-05-08 23:41 6.86425 44.70746 32911 ft 453 kts 167°
2026-05-08 23:42 6.80249 44.72211 32910 ft 453 kts 167°
2026-05-08 23:42 6.74116 44.73666 32909 ft 452 kts 167°
2026-05-08 23:43 6.68012 44.75130 32908 ft 452 kts 167°
2026-05-08 23:43 6.61891 44.76604 32913 ft 451 kts 167°
2026-05-08 23:44 6.55799 44.78070 32912 ft 451 kts 167°
2026-05-08 23:44 6.49664 44.79545 32910 ft 451 kts 167°
2026-05-08 23:45 6.43582 44.81008 32906 ft 452 kts 167°
2026-05-08 23:45 6.37439 44.82485 32910 ft 452 kts 167°
2026-05-08 23:46 6.31350 44.83949 32909 ft 452 kts 167°
2026-05-08 23:46 6.25203 44.85426 32909 ft 452 kts 167°
2026-05-08 23:47 6.19052 44.86904 32905 ft 453 kts 167°
2026-05-08 23:47 6.12921 44.88377 32906 ft 453 kts 167°
2026-05-08 23:48 6.06809 44.89844 32905 ft 453 kts 167°
2026-05-08 23:48 6.00684 44.91315 32904 ft 454 kts 167°
2026-05-08 23:49 5.94540 44.92790 32903 ft 454 kts 167°
2026-05-08 23:49 5.88371 44.94270 32906 ft 454 kts 167°
2026-05-08 23:50 5.82211 44.95748 32905 ft 454 kts 167°
2026-05-08 23:50 5.76055 44.97225 32905 ft 454 kts 167°
2026-05-08 23:51 5.69910 44.98699 32905 ft 454 kts 167°
2026-05-08 23:51 5.63765 45.00172 32906 ft 454 kts 167°
2026-05-08 23:52 5.58641 45.01400 32903 ft 454 kts 167°
2026-05-08 23:52 5.52506 45.02871 32906 ft 454 kts 167°
2026-05-08 23:53 5.46347 45.04346 32907 ft 453 kts 167°
2026-05-08 23:53 5.40236 45.05811 32903 ft 453 kts 167°
2026-05-08 23:54 5.34099 45.07281 32904 ft 453 kts 167°
2026-05-08 23:55 5.24890 45.09486 32903 ft 452 kts 167°
2026-05-08 23:55 5.18776 45.10950 32905 ft 452 kts 167°
2026-05-08 23:56 5.12661 45.12413 32900 ft 452 kts 167°
2026-05-08 23:56 5.06497 45.13708 32903 ft 451 kts 170°
2026-05-08 23:57 5.00291 45.14811 32898 ft 452 kts 169°
2026-05-08 23:57 4.94077 45.15940 32899 ft 452 kts 169°
2026-05-08 23:58 4.87906 45.17062 32898 ft 452 kts 169°
2026-05-08 23:58 4.81698 45.18191 32898 ft 452 kts 169°
2026-05-08 23:59 4.75521 45.19314 32898 ft 452 kts 169°
2026-05-08 23:59 4.69314 45.20443 32896 ft 452 kts 169°
2026-05-09 00:00 4.63110 45.21571 32898 ft 452 kts 169°
2026-05-09 00:00 4.56934 45.22693 32894 ft 452 kts 170°
2026-05-09 00:01 4.50760 45.23815 32899 ft 451 kts 169°
2026-05-09 00:01 4.44552 45.24943 32897 ft 451 kts 170°
2026-05-09 00:02 4.38370 45.26066 32898 ft 451 kts 170°
2026-05-09 00:02 4.32205 45.27185 32897 ft 451 kts 170°
2026-05-09 00:03 4.26042 45.28305 32899 ft 450 kts 170°
2026-05-09 00:03 4.19876 45.29424 32899 ft 450 kts 170°
2026-05-09 00:04 4.13729 45.30540 32897 ft 450 kts 170°
2026-05-09 00:04 4.07566 45.31659 32907 ft 449 kts 170°
2026-05-09 00:05 4.01418 45.32775 32900 ft 449 kts 170°
2026-05-09 00:05 3.95244 45.33895 32900 ft 449 kts 170°
2026-05-09 00:06 3.89093 45.35020 32899 ft 449 kts 169°
2026-05-09 00:06 3.82971 45.36258 32901 ft 449 kts 169°
2026-05-09 00:07 3.76828 45.37492 32900 ft 449 kts 169°
2026-05-09 00:07 3.70692 45.38722 32904 ft 449 kts 169°
2026-05-09 00:08 3.64554 45.39953 32901 ft 449 kts 169°
2026-05-09 00:08 3.58428 45.41181 32894 ft 448 kts 169°
2026-05-09 00:08 3.55409 45.41786 32742 ft 435 kts 169°
2026-05-09 00:09 3.52483 45.42373 32457 ft 426 kts 169°
2026-05-09 00:09 3.49583 45.42954 31957 ft 423 kts 169°
2026-05-09 00:09 3.46684 45.43535 31426 ft 422 kts 169°
2026-05-09 00:09 3.43810 45.44111 30920 ft 420 kts 169°
2026-05-09 00:10 3.40942 45.44686 30426 ft 418 kts 169°
2026-05-09 00:10 3.38108 45.45254 29945 ft 417 kts 168°
2026-05-09 00:10 3.35300 45.45816 29383 ft 415 kts 169°
2026-05-09 00:10 3.32456 45.46386 28876 ft 412 kts 169°
2026-05-09 00:11 3.29648 45.46949 28421 ft 409 kts 169°
2026-05-09 00:11 3.26855 45.47508 27958 ft 406 kts 169°
2026-05-09 00:11 3.24117 45.48056 27508 ft 403 kts 169°
2026-05-09 00:11 3.21381 45.48605 27067 ft 400 kts 169°
2026-05-09 00:12 3.18664 45.49149 26630 ft 398 kts 169°
2026-05-09 00:12 3.15935 45.49696 26187 ft 396 kts 169°
2026-05-09 00:12 3.13245 45.50234 25767 ft 394 kts 169°
2026-05-09 00:12 3.10555 45.50773 25347 ft 392 kts 169°
2026-05-09 00:13 3.07887 45.51307 24930 ft 390 kts 169°
2026-05-09 00:13 3.05239 45.51837 24522 ft 389 kts 169°
2026-05-09 00:13 3.02585 45.52369 24116 ft 387 kts 169°
2026-05-09 00:13 2.99951 45.52896 23716 ft 386 kts 169°
2026-05-09 00:14 2.97322 45.53422 23278 ft 385 kts 169°
2026-05-09 00:14 2.94681 45.53951 22827 ft 383 kts 169°
2026-05-09 00:14 2.92083 45.54471 22434 ft 380 kts 169°
2026-05-09 00:14 2.89528 45.54983 22048 ft 377 kts 169°
2026-05-09 00:15 2.86958 45.55497 21666 ft 374 kts 169°
2026-05-09 00:15 2.84403 45.56008 21291 ft 371 kts 169°
2026-05-09 00:15 2.81881 45.56513 20919 ft 368 kts 169°
2026-05-09 00:15 2.79374 45.57015 20548 ft 366 kts 169°
2026-05-09 00:16 2.76887 45.57513 20179 ft 363 kts 169°
2026-05-09 00:16 2.74414 45.58008 19815 ft 361 kts 169°
2026-05-09 00:16 2.71984 45.58494 19457 ft 360 kts 169°
2026-05-09 00:16 2.69537 45.58984 19104 ft 358 kts 169°
2026-05-09 00:17 2.67100 45.59472 18737 ft 356 kts 169°
2026-05-09 00:17 2.64648 45.59962 18369 ft 355 kts 169°
2026-05-09 00:17 2.62257 45.60441 17991 ft 353 kts 169°
2026-05-09 00:17 2.59838 45.60924 17586 ft 352 kts 169°
2026-05-09 00:18 2.57419 45.61409 17226 ft 349 kts 169°
2026-05-09 00:18 2.55048 45.61883 16875 ft 346 kts 169°
2026-05-09 00:18 2.52706 45.62351 16525 ft 344 kts 169°
2026-05-09 00:18 2.50375 45.62818 16177 ft 342 kts 169°
2026-05-09 00:19 2.48049 45.63283 15831 ft 339 kts 170°
2026-05-09 00:19 2.45733 45.63746 15484 ft 337 kts 169°
2026-05-09 00:19 2.43433 45.64206 15139 ft 335 kts 170°
2026-05-09 00:19 2.41134 45.64666 14793 ft 334 kts 170°
2026-05-09 00:20 2.38866 45.65120 14452 ft 332 kts 170°
2026-05-09 00:20 2.36599 45.65573 14114 ft 331 kts 170°
2026-05-09 00:20 2.34360 45.66021 13786 ft 329 kts 170°
2026-05-09 00:20 2.32110 45.66471 13398 ft 328 kts 170°
2026-05-09 00:21 2.29876 45.66918 13035 ft 326 kts 170°
2026-05-09 00:21 2.27671 45.67359 12692 ft 324 kts 170°
2026-05-09 00:21 2.25463 45.67801 12353 ft 322 kts 170°
2026-05-09 00:21 2.23268 45.68239 12017 ft 320 kts 170°
2026-05-09 00:22 2.21104 45.68673 11682 ft 318 kts 170°
2026-05-09 00:22 2.18936 45.69106 11343 ft 316 kts 170°
2026-05-09 00:22 2.16786 45.69536 11016 ft 315 kts 170°
2026-05-09 00:22 2.14651 45.69965 10683 ft 314 kts 169°
2026-05-09 00:23 2.12506 45.70399 10368 ft 312 kts 168°
2026-05-09 00:23 2.10392 45.70828 10209 ft 303 kts 169°
2026-05-09 00:23 2.08351 45.71088 10029 ft 293 kts 185°
2026-05-09 00:23 2.06447 45.70551 9829 ft 281 kts 211°
2026-05-09 00:24 2.04997 45.69294 9526 ft 275 kts 233°
2026-05-09 00:24 2.03969 45.67714 9260 ft 270 kts 239°
2026-05-09 00:24 2.03001 45.66111 8963 ft 268 kts 239°
2026-05-09 00:24 2.02058 45.64516 8666 ft 267 kts 240°
2026-05-09 00:25 2.01432 45.63448 8469 ft 265 kts 240°
2026-05-09 00:25 2.00512 45.61864 8183 ft 263 kts 240°
2026-05-09 00:25 1.99589 45.60272 7913 ft 260 kts 240°
2026-05-09 00:25 1.98704 45.58735 7885 ft 247 kts 240°
2026-05-09 00:26 1.97868 45.57283 7889 ft 244 kts 240°
2026-05-09 00:26 1.96988 45.55749 7811 ft 259 kts 240°
2026-05-09 00:26 1.96078 45.54166 7741 ft 265 kts 240°
2026-05-09 00:26 1.95155 45.52562 7685 ft 266 kts 240°
2026-05-09 00:27 1.94234 45.50960 7621 ft 266 kts 240°
2026-05-09 00:27 1.93307 45.49350 7557 ft 266 kts 239°
2026-05-09 00:27 1.92388 45.47758 7492 ft 266 kts 239°
2026-05-09 00:27 1.91466 45.46155 7435 ft 266 kts 240°
2026-05-09 00:28 1.90548 45.44556 7368 ft 266 kts 240°
2026-05-09 00:28 1.89633 45.42960 7175 ft 265 kts 240°
2026-05-09 00:28 1.88715 45.41363 6992 ft 262 kts 240°
2026-05-09 00:28 1.87816 45.39800 6865 ft 254 kts 239°
2026-05-09 00:29 1.86950 45.38297 6744 ft 246 kts 239°
2026-05-09 00:29 1.86104 45.36825 6612 ft 243 kts 239°
2026-05-09 00:29 1.85248 45.35345 6422 ft 244 kts 239°
2026-05-09 00:29 1.84392 45.33873 6098 ft 246 kts 239°
2026-05-09 00:30 1.83534 45.32407 5789 ft 247 kts 239°
2026-05-09 00:30 1.82665 45.30915 5476 ft 246 kts 238°
2026-05-09 00:30 1.81807 45.29445 5210 ft 244 kts 238°
2026-05-09 00:30 1.80996 45.27970 4894 ft 238 kts 244°
2026-05-09 00:31 1.80494 45.26449 4670 ft 229 kts 255°
2026-05-09 00:31 1.80316 45.24898 4441 ft 220 kts 266°
2026-05-09 00:31 1.80456 45.23414 4276 ft 206 kts 277°
2026-05-09 00:31 1.80858 45.22053 4095 ft 202 kts 289°
2026-05-09 00:32 1.81500 45.20816 3883 ft 201 kts 299°
2026-05-09 00:32 1.82371 45.19723 3695 ft 199 kts 310°
2026-05-09 00:32 1.83406 45.18845 3480 ft 194 kts 321°
2026-05-09 00:32 1.84563 45.18189 3305 ft 191 kts 332°
2026-05-09 00:33 1.85830 45.17755 3157 ft 192 kts 343°
2026-05-09 00:33 1.87161 45.17559 3029 ft 194 kts 354°
2026-05-09 00:33 1.88510 45.17616 2888 ft 194 kts
2026-05-09 00:33 1.89814 45.17915 2719 ft 194 kts 18°
2026-05-09 00:34 1.91062 45.18463 2556 ft 193 kts 30°
2026-05-09 00:34 1.92155 45.19216 2386 ft 191 kts 41°
2026-05-09 00:34 1.93096 45.20163 2204 ft 190 kts 52°
2026-05-09 00:34 1.93901 45.21201 2042 ft 187 kts 55°
2026-05-09 00:35 1.94698 45.22232 1921 ft 188 kts 54°
2026-05-09 00:35 1.95506 45.23250 1835 ft 186 kts 53°
2026-05-09 00:35 1.96316 45.24275 1485 ft 186 kts 53°
2026-05-09 00:35 1.97096 45.25262 1120 ft 177 kts 53°
2026-05-09 00:36 1.97878 45.26176 802 ft 168 kts 49°
2026-05-09 00:36 1.98605 45.27027 573 ft 151 kts 54°
2026-05-09 00:36 1.99269 45.27828 431 ft 153 kts 54°
2026-05-09 00:36 1.99924 45.28630 235 ft 143 kts 50°
2026-05-09 00:37 2.00552 45.29390 57 ft 142 kts 50°
2026-05-09 00:37 2.01144 45.30096 32 ft 104 kts 51°
2026-05-09 00:37 2.01454 45.30471 30 ft 20 kts 48°
2026-05-09 00:37 2.01541 45.30439 31 ft 14 kts 317°
2026-05-09 00:38 2.01584 45.30400 32 ft 7 kts 321°
2026-05-09 00:38 2.01631 45.30394 32 ft 8 kts 26°
2026-05-09 00:38 2.01670 45.30431 32 ft 5 kts 50°
2026-05-09 00:38 2.01698 45.30460 32 ft 6 kts 28°
2026-05-09 00:39 2.01730 45.30452 32 ft 3 kts 324°
2026-05-09 00:39 2.01740 45.30444 32 ft 0 kts 322°